This is the latest recevied weather packets stored in our database for station/object DH4SBM. If no packets are shown the sender has not sent any weather packets the latest 10 day(s).
| Time | Temp. | Humidity | Pressure | Rain* | Wind** | Luminosity | Snow |
|---|---|---|---|---|---|---|---|
| 1788524908 | 30° C | 47% | 1015.8 hPa | 0 mm | - | 654 W/m² | - |
| 1788524310 | 29.44° C | 47% | 1016.1 hPa | 0 mm | - | 668 W/m² | - |
| 1788523710 | 29.44° C | 48% | 1016.3 hPa | 0 mm | - | 684 W/m² | - |
| 1788523110 | 29.44° C | 48% | 1016.3 hPa | 0 mm | - | 686 W/m² | - |
| 1788521909 | 28.89° C | 50% | 1016.5 hPa | 0 mm | - | 679 W/m² | - |
| 1788521309 | 28.89° C | 50% | 1016.7 hPa | 0 mm | - | 698 W/m² | - |
| 1788520109 | 28.33° C | 51% | 1017.1 hPa | 0 mm | - | 707 W/m² | - |
| 1788518308 | 27.22° C | 53% | 1017.4 hPa | 0 mm | - | 691 W/m² | - |
| 1788517710 | 27.22° C | 54% | 1017.4 hPa | 0 mm | - | 687 W/m² | - |
| 1788517110 | 26.67° C | 54% | 1017.7 hPa | 0 mm | - | 675 W/m² | - |
| 1788516510 | 26.67° C | 55% | 1017.7 hPa | 0 mm | - | 671 W/m² | - |
| 1788514709 | 26.67° C | 56% | 1018.2 hPa | 0 mm | - | 636 W/m² | - |
| 1788514109 | 26.11° C | 56% | 1018.3 hPa | 0 mm | - | 624 W/m² | - |
| 1788513509 | 25.56° C | 58% | 1018.5 hPa | 0 mm | - | 612 W/m² | - |
| 1788512909 | 25.56° C | 58% | 1018.7 hPa | 0 mm | - | 598 W/m² | - |
| 1788511108 | 25° C | 59% | 1019.1 hPa | 0 mm | - | 543 W/m² | - |
| 1788510508 | 25° C | 59% | 1019.1 hPa | 0 mm | - | 524 W/m² | - |
| 1788509910 | 24.44° C | 60% | 1019 hPa | 0 mm | - | 504 W/m² | - |
| 1788509309 | 23.89° C | 61% | 1019 hPa | 0 mm | - | 482 W/m² | - |
| 1788508709 | 23.33° C | 62% | 1019.2 hPa | 0 mm | - | 462 W/m² | - |
| 1788508109 | 23.33° C | 62% | 1019.2 hPa | 0 mm | - | 290 W/m² | - |
| 1788507509 | 22.78° C | 63% | 1019.3 hPa | 0 mm | - | 420 W/m² | - |
| 1788506909 | 22.78° C | 63% | 1019.4 hPa | 0 mm | - | 346 W/m² | - |
| 1788506309 | 22.22° C | 65% | 1019.5 hPa | 0 mm | - | 374 W/m² | - |
| 1788505709 | 21.67° C | 65% | 1019.6 hPa | 0 mm | - | 352 W/m² | - |
* Rain latest hour (hover to see other rain measurements)
** Current wind speed in m/s (hover to see current wind gust speed)